Ravenna, OH

8:25 PM EDT on April 24, 2017 (GMT -0400)
Ravenna

Weather History for KPOV - October, 2012

Change the Weather History Date:

Saturday, October 20, 2012

  Actual Average (KCAK) Record (KCAK)
Temperature  
Mean Temperature 48 °F -  
Max Temperature 51 °F 57 °F 82 °F (1920)
Min Temperature 44 °F 39 °F 20 °F (1952)
Degree Days  
Heating Degree Days 18    
Moisture  
Dew Point 42 °F    
Average Humidity 82    
Maximum Humidity 97    
Minimum Humidity 62    
Precipitation  
Precipitation 0.01 in - - ()
Sea Level Pressure  
Sea Level Pressure 29.76 in    
Wind  
Wind Speed 6 mph (SW)    
Max Wind Speed 15 mph    
Max Gust Speed 21 mph    
Visibility 10 miles    
Events      
Averages and records for this station are not official NWS values.
T = Trace of Precipitation, MM = Missing Value Source: NWS Daily Summary

Daily Weather History Graph

Daily Weather History Graph

Search for Another Location

Airport or City:

Trip Planner

Search our weather history database for the weather conditions in past years. The results will help you decide how hot, cold, wet, or windy it might be!

Date:

Astronomy

Oct. 20, 2012 Rise Set
Actual Time 7:42 AM EDT 6:35 PM EDT
Civil Twilight 7:14 AM EDT 7:03 PM EDT
Nautical Twilight 6:42 AM EDT 7:36 PM EDT
Astronomical Twilight 6:10 AM EDT 8:07 PM EDT
Moon 1:19 PM EDT (10/20) 11:18 PM EDT (10/20)
Length of Visible Light 11h 49m
Length of Day
10h 53m
Waxing Crescent, 34% of the Moon is Illuminated
Oct 20
Waxing Crescent
Oct 21
First Quarter
Oct 29
Full
Nov 6
Last Quarter
Nov 13
New

Hourly Weather History & Observations

Time (EDT) Temp. Windchill Dew Point Humidity Pressure Visibility Wind Dir Wind Speed Gust Speed Precip Events Conditions
12:14 AM 44.8 °F 42.4 °F 43.7 °F 96% 29.67 in 10.0 mi SSW 4.6 mph - N/A   Overcast
12:33 AM 44.6 °F 42.2 °F 43.7 °F 97% 29.67 in 10.0 mi South 4.6 mph - N/A   Overcast
12:54 AM 44.6 °F 42.2 °F 43.7 °F 97% 29.66 in 10.0 mi South 4.6 mph - N/A   Overcast
1:14 AM 44.8 °F 43.3 °F 43.7 °F 96% 29.66 in 10.0 mi South 3.5 mph - N/A   Overcast
1:33 AM 45.0 °F 42.6 °F 43.7 °F 95% 29.67 in 10.0 mi South 4.6 mph - N/A   Overcast
1:54 AM 45.0 °F 42.6 °F 43.7 °F 95% 29.67 in 10.0 mi SSW 4.6 mph - N/A   Overcast
2:14 AM 45.1 °F 42.8 °F 43.7 °F 95% 29.67 in 10.0 mi SSW 4.6 mph - N/A   Overcast
2:34 AM 45.3 °F 42.3 °F 43.3 °F 93% 29.67 in 10.0 mi SW 5.8 mph - N/A   Unknown
2:54 AM 45.0 °F 42.6 °F 43.2 °F 93% 29.67 in 10.0 mi WSW 4.6 mph - N/A   Unknown
3:14 AM 44.2 °F 42.7 °F 43.0 °F 95% 29.67 in 10.0 mi SSW 3.5 mph - N/A   Unknown
3:34 AM 44.6 °F 42.2 °F 43.2 °F 95% 29.67 in 10.0 mi SSW 4.6 mph - N/A   Unknown
3:54 AM 44.8 °F 42.4 °F 43.3 °F 95% 29.67 in 10.0 mi SSW 4.6 mph - N/A   Overcast
4:14 AM 45.0 °F 41.8 °F 43.3 °F 94% 29.67 in 10.0 mi SSW 5.8 mph - N/A   Unknown
4:33 AM 45.1 °F 42.0 °F 43.3 °F 93% 29.67 in 10.0 mi SSW 5.8 mph - N/A   Unknown
4:54 AM 45.5 °F 42.5 °F 43.3 °F 92% 29.68 in 10.0 mi SSW 5.8 mph - N/A   Overcast
5:14 AM 45.1 °F 43.7 °F 43.9 °F 95% 29.68 in 7.0 mi SSW 3.5 mph - 0.01 in   Overcast
5:34 AM 45.0 °F - 44.2 °F 97% 29.68 in 10.0 mi Calm Calm - 0.01 in   Overcast
5:53 AM 45.0 °F - 44.2 °F 97% 29.68 in 10.0 mi Calm Calm - 0.01 in   Overcast
6:14 AM 44.8 °F 43.3 °F 43.9 °F 97% 29.68 in 10.0 mi WSW 3.5 mph - N/A   Unknown
6:33 AM 44.8 °F 40.4 °F 43.9 °F 97% 29.68 in 10.0 mi SW 8.1 mph - N/A   Unknown
6:54 AM 45.1 °F 40.3 °F 43.3 °F 93% 29.68 in 10.0 mi SW 9.2 mph - N/A   Unknown
7:14 AM 45.1 °F 42.8 °F 43.2 °F 93% 29.69 in 10.0 mi WSW 4.6 mph - N/A   Unknown
7:33 AM 45.1 °F 42.0 °F 43.2 °F 93% 29.69 in 10.0 mi SW 5.8 mph - N/A   Unknown
7:54 AM 45.1 °F 40.8 °F 43.2 °F 93% 29.69 in 10.0 mi SW 8.1 mph - N/A   Unknown
8:14 AM 45.5 °F 43.2 °F 43.2 °F 92% 29.70 in 10.0 mi SW 4.6 mph - N/A   Unknown
8:33 AM 45.5 °F 43.2 °F 43.2 °F 92% 29.71 in 10.0 mi SW 4.6 mph - N/A   Unknown
8:54 AM 45.7 °F 42.7 °F 43.0 °F 90% 29.71 in 10.0 mi SW 5.8 mph - N/A   Unknown
9:14 AM 45.7 °F 41.5 °F 42.6 °F 89% 29.71 in 10.0 mi SW 8.1 mph - N/A   Unknown
9:33 AM 45.9 °F 41.2 °F 42.3 °F 87% 29.72 in 10.0 mi SW 9.2 mph - N/A   Unknown
9:54 AM 46.0 °F 41.4 °F 41.9 °F 85% 29.72 in 10.0 mi WSW 9.2 mph - N/A   Unknown
10:14 AM 46.4 °F 41.9 °F 41.9 °F 84% 29.73 in 10.0 mi SW 9.2 mph - N/A   Unknown
10:34 AM 47.7 °F - 41.7 °F 80% 29.73 in 10.0 mi WSW 9.2 mph 18.4 mph N/A   Unknown
10:54 AM 47.8 °F - 41.4 °F 78% 29.73 in 10.0 mi WSW 11.5 mph 16.1 mph N/A   Unknown
11:14 AM 49.6 °F - 40.5 °F 71% 29.73 in 10.0 mi WSW 5.8 mph - N/A   Unknown
11:33 AM 48.7 °F - 39.6 °F 71% 29.73 in 10.0 mi WSW 10.4 mph 20.7 mph N/A   Overcast
11:54 AM 48.7 °F - 39.4 °F 70% 29.74 in 10.0 mi WSW 11.5 mph 17.3 mph N/A   Unknown
12:14 PM 48.6 °F - 39.4 °F 71% 29.74 in 10.0 mi WSW 15.0 mph 19.6 mph N/A   Unknown
12:34 PM 49.1 °F - 39.4 °F 69% 29.75 in 10.0 mi WSW 11.5 mph 18.4 mph N/A   Unknown
12:54 PM 50.0 °F - 39.4 °F 67% 29.74 in 10.0 mi WSW 9.2 mph 18.4 mph N/A   Unknown
1:14 PM 50.2 °F - 39.4 °F 66% 29.74 in 10.0 mi WSW 11.5 mph 16.1 mph N/A   Overcast
1:34 PM 50.0 °F - 38.7 °F 65% 29.75 in 10.0 mi SW 12.7 mph 18.4 mph N/A   Overcast
1:53 PM 50.5 °F - 39.2 °F 65% 29.74 in 10.0 mi WSW 9.2 mph 19.6 mph N/A   Unknown
2:14 PM 50.9 °F - 39.2 °F 64% 29.75 in 10.0 mi WSW 8.1 mph 16.1 mph N/A   Unknown
2:34 PM 50.5 °F - 38.3 °F 63% 29.75 in 10.0 mi WSW 13.8 mph - N/A   Overcast
2:53 PM 51.3 °F - 38.5 °F 62% 29.75 in 10.0 mi WSW 9.2 mph - N/A   Overcast
3:14 PM 50.9 °F - 38.5 °F 62% 29.76 in 10.0 mi WSW 10.4 mph - N/A   Unknown
3:34 PM 48.6 °F - 40.8 °F 75% 29.77 in 10.0 mi West 11.5 mph 19.6 mph N/A   Unknown
3:53 PM 48.7 °F - 41.9 °F 77% 29.78 in 10.0 mi West 8.1 mph - N/A   Overcast
4:14 PM 48.7 °F - 41.4 °F 76% 29.78 in 10.0 mi WSW 9.2 mph - N/A   Overcast
4:34 PM 48.9 °F - 42.3 °F 78% 29.78 in 10.0 mi West 6.9 mph - N/A   Overcast
4:53 PM 49.6 °F - 41.9 °F 75% 29.79 in 10.0 mi WSW 6.9 mph - N/A   Overcast
5:14 PM 49.8 °F - 41.0 °F 72% 29.80 in 10.0 mi WSW 12.7 mph 17.3 mph N/A   Overcast
5:33 PM 49.5 °F - 41.2 °F 73% 29.81 in 10.0 mi WSW 8.1 mph - N/A   Unknown
5:54 PM 48.7 °F - 41.4 °F 76% 29.81 in 10.0 mi WSW 5.8 mph - N/A   Unknown
6:14 PM 48.4 °F - 41.7 °F 78% 29.83 in 10.0 mi WSW 8.1 mph - N/A   Unknown
6:34 PM 48.6 °F - 41.9 °F 78% 29.83 in 10.0 mi WSW 6.9 mph - N/A   Unknown
6:53 PM 48.7 °F - 41.9 °F 77% 29.83 in 10.0 mi WSW 6.9 mph - N/A   Unknown
7:14 PM 48.9 °F - 41.5 °F 76% 29.84 in 10.0 mi WSW 8.1 mph - N/A   Unknown
7:34 PM 49.1 °F - 41.7 °F 76% 29.85 in 10.0 mi WSW 8.1 mph - N/A   Unknown
7:53 PM 49.1 °F - 41.0 °F 74% 29.85 in 10.0 mi WSW 9.2 mph - N/A   Unknown
8:14 PM 49.1 °F - 41.0 °F 74% 29.86 in 10.0 mi WSW 9.2 mph - N/A   Unknown
8:34 PM 48.7 °F - 40.6 °F 74% 29.86 in 10.0 mi WSW 9.2 mph - N/A   Unknown
8:54 PM 48.2 °F - 40.5 °F 75% 29.87 in 10.0 mi WSW 9.2 mph - N/A   Unknown
9:14 PM 47.5 °F - 40.6 °F 77% 29.88 in 10.0 mi WSW 6.9 mph - N/A   Unknown
9:34 PM 47.3 °F - 40.5 °F 77% 29.88 in 10.0 mi West 6.9 mph - N/A   Unknown
9:53 PM 47.5 °F - 41.0 °F 78% 29.89 in 10.0 mi WSW 9.2 mph - N/A   Unknown
10:14 PM 47.8 °F - 41.0 °F 77% 29.89 in 10.0 mi WSW 8.1 mph - N/A   Unknown
10:34 PM 48.2 °F - 41.0 °F 76% 29.90 in 10.0 mi WSW 6.9 mph - N/A   Unknown
10:53 PM 48.2 °F - 41.2 °F 77% 29.91 in 10.0 mi WSW 6.9 mph - N/A   Unknown
11:14 PM 48.2 °F - 41.0 °F 76% 29.92 in 10.0 mi WSW 6.9 mph - N/A   Unknown
11:34 PM 48.0 °F - 41.0 °F 77% 29.92 in 10.0 mi WSW 5.8 mph - N/A   Overcast
11:54 PM 47.3 °F - 40.6 °F 78% 29.93 in 10.0 mi West 6.9 mph - N/A   Unknown